^^
Saratoga-Weather Station Historical Data
Daily Summary for March 3, 2021 Units:  English    Metric   Both
Daily Weekly Monthly Yearly Custom
  High: Low: Average:
Temperature: 54.7 °F 46.6 °F 51.3 °F
Dew Point: 51.6 °F 42.3 °F 48.4 °F
Humidity: 97% 78% 90%
Wind Speed: 17mph 0mph 4.1mph
Wind Gust: 28mph - -
Wind- - WSW
Pressure: 29.8 in 29.4 in -
Precipitation: 0.86 in    
Historical Graphs
 
 
Tabular Data for March 3, 2021
Time Temperature Dew Point Pressure Wind Wind Speed Wind Gust Humidity Rainfall Rate (Hourly) solar
00:03 52 °F 49.6 °F 29.6 in SSW 0.9 mph 4 mph 92% 0 in 0 W/m2
00:08 52 °F 49.6 °F 29.6 in West 0.9 mph 3 mph 92% 0 in 0 W/m2
00:13 51.8 °F 49.8 °F 29.6 in NNW 2.9 mph 7 mph 93% 0 in 0 W/m2
00:18 52 °F 50 °F 29.6 in ESE 0.9 mph 2 mph 93% 0 in 0 W/m2
00:23 51.8 °F 49.8 °F 29.6 in Calm   6 mph 93% 0 in 0 W/m2
00:28 51.8 °F 49.8 °F 29.6 in NNE 0.9 mph 2 mph 93% 0 in 0 W/m2
00:33 51.8 °F 49.8 °F 29.6 in East 2.9 mph 3 mph 93% 0 in 0 W/m2
00:38 51.8 °F 49.8 °F 29.6 in WNW 2.9 mph 3 mph 93% 0 in 0 W/m2
00:43 52 °F 50 °F 29.6 in West 0.9 mph 4 mph 93% 0.01 in 0 W/m2
00:48 52 °F 50 °F 29.6 in WNW 2.9 mph 5 mph 93% 0.01 in 0 W/m2
00:53 52 °F 50.4 °F 29.6 in Calm   2 mph 94% 0.01 in 0 W/m2
00:58 51.8 °F 50.2 °F 29.6 in WSW 4 mph 7 mph 94% 0.01 in 0 W/m2
01:03 51.8 °F 50.2 °F 29.6 in WSW 4 mph 12 mph 94% 0.01 in 0 W/m2
01:08 52 °F 50.4 °F 29.6 in WSW 2.9 mph 12 mph 94% 0.01 in 0 W/m2
01:13 52 °F 50.4 °F 29.6 in NW 6.9 mph 8 mph 94% 0.01 in 0 W/m2
01:18 52 °F 50.4 °F 29.6 in ENE 0.9 mph 11 mph 94% 0.01 in 0 W/m2
01:23 52.2 °F 50.5 °F 29.6 in WNW 0.9 mph 4 mph 94% 0.01 in 0 W/m2
01:28 52.2 °F 50.5 °F 29.6 in North 0.9 mph 3 mph 94% 0.01 in 0 W/m2
01:33 52.2 °F 50.2 °F 29.6 in Calm   4 mph 93% 0.01 in 0 W/m2
01:38 52.2 °F 50.2 °F 29.6 in ESE 0.9 mph 8 mph 93% 0 in 0 W/m2
01:43 52.2 °F 50.2 °F 29.6 in Calm   3 mph 93% 0 in 0 W/m2
01:48 52.3 °F 50.4 °F 29.6 in NNW 2 mph 4 mph 93% 0 in 0 W/m2
01:53 52.3 °F 50.4 °F 29.6 in West 2 mph 7 mph 93% 0 in 0 W/m2
01:58 52.3 °F 50.4 °F 29.6 in WNW 2 mph 4 mph 93% 0 in 0 W/m2
02:03 52.5 °F 50.2 °F 29.6 in WNW 0.9 mph 4 mph 92% 0 in 0 W/m2
02:08 52.3 °F 50 °F 29.6 in West 2.9 mph 4 mph 92% 0 in 0 W/m2
02:13 52.5 °F 50.2 °F 29.6 in West 2 mph 5 mph 92% 0 in 0 W/m2
02:18 52.5 °F 50.2 °F 29.6 in NW 2.9 mph 4 mph 92% 0 in 0 W/m2
02:23 52.5 °F 50.2 °F 29.6 in North 2.9 mph 9 mph 92% 0 in 0 W/m2
02:28 52.3 °F 50 °F 29.6 in West 2.9 mph 7 mph 92% 0 in 0 W/m2
02:33 52.3 °F 50 °F 29.6 in WNW 0.9 mph 9 mph 92% 0 in 0 W/m2
02:38 52.2 °F 49.8 °F 29.6 in NW 2 mph 4 mph 92% 0 in 0 W/m2
02:43 52.2 °F 49.8 °F 29.6 in WNW 0.9 mph 6 mph 92% 0 in 0 W/m2
02:48 52.2 °F 49.8 °F 29.6 in NW 4 mph 6 mph 92% 0 in 0 W/m2
02:53 52.2 °F 49.8 °F 29.6 in West 2 mph 8 mph 92% 0 in 0 W/m2
02:58 52.2 °F 49.8 °F 29.6 in South 4 mph 7 mph 92% 0 in 0 W/m2
03:03 52.2 °F 49.8 °F 29.6 in North 4 mph 10 mph 92% 0 in 0 W/m2
03:08 52.2 °F 49.8 °F 29.6 in WNW 2 mph 4 mph 92% 0 in 0 W/m2
03:13 52.2 °F 49.8 °F 29.6 in WSW 2 mph 3 mph 92% 0 in 0 W/m2
03:18 52.2 °F 49.8 °F 29.6 in NNW 2.9 mph 8 mph 92% 0 in 0 W/m2
03:23 52.2 °F 49.8 °F 29.6 in NNW 2.9 mph 4 mph 92% 0 in 0 W/m2
03:28 52.2 °F 49.6 °F 29.6 in North 0.9 mph 8 mph 91% 0 in 0 W/m2
03:33 52.2 °F 49.6 °F 29.6 in WNW 0.9 mph 3 mph 91% 0 in 0 W/m2
03:38 52.2 °F 49.6 °F 29.6 in NNW 6 mph 9 mph 91% 0 in 0 W/m2
03:43 52.2 °F 49.6 °F 29.6 in Calm   2 mph 91% 0 in 0 W/m2
03:48 52.2 °F 49.6 °F 29.6 in WNW 2 mph 6 mph 91% 0 in 0 W/m2
03:54 52.2 °F 49.6 °F 29.6 in NNW 4 mph 8 mph 91% 0 in 0 W/m2
03:59 52.2 °F 49.6 °F 29.6 in NW 4 mph 4 mph 91% 0 in 0 W/m2
04:04 52.2 °F 49.6 °F 29.6 in WNW 6 mph 9 mph 91% 0 in 0 W/m2
04:09 52.2 °F 49.3 °F 29.6 in NW 4 mph 6 mph 90% 0 in 0 W/m2
04:14 52.2 °F 49.3 °F 29.6 in West 0.9 mph 10 mph 90% 0 in 0 W/m2
04:19 52.2 °F 49.3 °F 29.6 in NNW 2.9 mph 6 mph 90% 0 in 0 W/m2
04:24 52.2 °F 49.3 °F 29.6 in NE 2.9 mph 9 mph 90% 0 in 0 W/m2
04:29 52.2 °F 49.3 °F 29.6 in NW 4 mph 8 mph 90% 0 in 0 W/m2
04:34 52 °F 48.9 °F 29.6 in SSW 2 mph 10 mph 89% 0 in 0 W/m2
04:39 52 °F 48.9 °F 29.6 in NNW 2 mph 2 mph 89% 0 in 0 W/m2
04:44 52 °F 48.9 °F 29.6 in NW 0.9 mph 6 mph 89% 0 in 0 W/m2
04:49 52 °F 48.9 °F 29.6 in Calm   3 mph 89% 0 in 0 W/m2
04:54 52 °F 48.9 °F 29.6 in Calm   3 mph 89% 0 in 0 W/m2
04:59 51.8 °F 48.7 °F 29.6 in West 0.9 mph 3 mph 89% 0 in 0 W/m2
05:04 51.6 °F 48.6 °F 29.6 in West 0.9 mph 1 mph 89% 0 in 0 W/m2
05:09 51.6 °F 48.7 °F 29.6 in North 0.9 mph 3 mph 90% 0 in 0 W/m2
05:14 51.6 °F 48.7 °F 29.6 in West 2 mph 5 mph 90% 0 in 0 W/m2
05:19 51.6 °F 48.7 °F 29.6 in Calm   3 mph 90% 0 in 0 W/m2
05:24 51.6 °F 48.7 °F 29.6 in Calm   5 mph 90% 0 in 0 W/m2
05:29 51.4 °F 48.6 °F 29.6 in Calm   2 mph 90% 0 in 0 W/m2
05:34 51.4 °F 48.6 °F 29.6 in Calm   2 mph 90% 0 in 0 W/m2
05:39 51.3 °F 48.7 °F 29.6 in ENE 2 mph 5 mph 91% 0 in 0 W/m2
05:44 51.3 °F 48.7 °F 29.6 in NW 2.9 mph 3 mph 91% 0.01 in 0 W/m2
05:49 51.3 °F 48.7 °F 29.6 in Calm   5 mph 91% 0.02 in 0 W/m2
05:54 51.3 °F 49.1 °F 29.6 in East 0.9 mph 2 mph 92% 0.02 in 0 W/m2
05:59 51.1 °F 48.9 °F 29.6 in North 0.9 mph 2 mph 92% 0.03 in 0 W/m2
06:04 51.1 °F 48.9 °F 29.5 in NE 2 mph 2 mph 92% 0.04 in 0 W/m2
06:09 51.1 °F 49.1 °F 29.5 in Calm   2 mph 93% 0.05 in 0 W/m2
06:14 51.1 °F 49.1 °F 29.5 in NE 2 mph 2 mph 93% 0.06 in 0 W/m2
06:19 50.7 °F 48.7 °F 29.5 in Calm     93% 0.07 in 0 W/m2
06:24 50.7 °F 49.1 °F 29.5 in Calm     94% 0.07 in 0 W/m2
06:29 50.5 °F 48.9 °F 29.5 in ENE 0.9 mph 1 mph 94% 0.08 in 0 W/m2
06:34 50.5 °F 48.9 °F 29.5 in Calm   2 mph 94% 0.09 in 0 W/m2
06:39 50.5 °F 49.1 °F 29.5 in East 2 mph 3 mph 95% 0.1 in 0 W/m2
06:44 50.5 °F 49.1 °F 29.5 in WNW 0.9 mph 4 mph 95% 0.1 in 0 W/m2
06:49 50.5 °F 49.1 °F 29.5 in Calm   3 mph 95% 0.12 in 0 W/m2
06:54 50.4 °F 48.9 °F 29.5 in NNW 2 mph 5 mph 95% 0.13 in 0 W/m2
06:59 50.5 °F 49.1 °F 29.5 in NNW 0.9 mph 3 mph 95% 0.12 in 0 W/m2
07:04 50.5 °F 49.1 °F 29.5 in NNE 2 mph 8 mph 95% 0.12 in 0 W/m2
07:09 50.7 °F 49.3 °F 29.5 in NNW 2 mph 4 mph 95% 0.13 in 0 W/m2
07:14 50.7 °F 49.3 °F 29.5 in ENE 4 mph 8 mph 95% 0.13 in 0 W/m2
07:19 50.7 °F 49.3 °F 29.5 in NNE 2 mph 2 mph 95% 0.13 in 0 W/m2
07:24 50.9 °F 49.5 °F 29.5 in Calm   6 mph 95% 0.14 in 0 W/m2
07:29 50.7 °F 49.3 °F 29.5 in North 0.9 mph 2 mph 95% 0.16 in 0 W/m2
07:34 50.7 °F 49.3 °F 29.5 in Calm   3 mph 95% 0.17 in 0 W/m2
07:39 50.7 °F 49.3 °F 29.5 in NW 2 mph 4 mph 95% 0.2 in 0 W/m2
07:44 50.7 °F 49.3 °F 29.5 in North 0.9 mph 2 mph 95% 0.22 in 0 W/m2
07:49 50.7 °F 49.3 °F 29.5 in ENE 2.9 mph 5 mph 95% 0.22 in 0 W/m2
07:54 50.5 °F 49.1 °F 29.5 in East 2.9 mph 4 mph 95% 0.23 in 0 W/m2
07:59 50.5 °F 49.1 °F 29.5 in ENE 6 mph 6 mph 95% 0.23 in 0 W/m2
08:04 50.4 °F 48.9 °F 29.5 in East 2 mph 4 mph 95% 0.24 in 0 W/m2
08:09 50.4 °F 48.9 °F 29.5 in ENE 2 mph 5 mph 95% 0.23 in 0 W/m2
08:14 50.2 °F 48.7 °F 29.5 in East 2.9 mph 4 mph 95% 0.23 in 0 W/m2
08:19 50.2 °F 48.7 °F 29.5 in ESE 2.9 mph 3 mph 95% 0.23 in 0 W/m2
08:24 50 °F 48.6 °F 29.5 in ESE 2 mph 6 mph 95% 0.23 in 0 W/m2
08:29 49.8 °F 48.4 °F 29.5 in ENE 2 mph 5 mph 95% 0.21 in 0 W/m2
08:34 49.6 °F 48.2 °F 29.5 in East 2.9 mph 5 mph 95% 0.2 in 0 W/m2
08:39 49.6 °F 48.6 °F 29.5 in ENE 2 mph 4 mph 96% 0.15 in 0 W/m2
08:44 49.6 °F 48.6 °F 29.5 in SE 2 mph 2 mph 96% 0.13 in 0 W/m2
08:49 49.6 °F 48.6 °F 29.5 in East 4.9 mph 7 mph 96% 0.11 in 0 W/m2
08:54 49.6 °F 48.6 °F 29.5 in East 2 mph 8 mph 96% 0.09 in 5 W/m2
08:59 49.6 °F 48.6 °F 29.5 in NE 0.9 mph 6 mph 96% 0.09 in 5 W/m2
09:04 49.6 °F 48.6 °F 29.5 in ENE 4.9 mph 9 mph 96% 0.08 in 9 W/m2
09:09 49.6 °F 48.6 °F 29.5 in ESE 2.9 mph 3 mph 96% 0.07 in 7 W/m2
09:14 49.8 °F 48.7 °F 29.5 in East 2.9 mph 5 mph 96% 0.06 in 5 W/m2
09:19 50.4 °F 49.5 °F 29.5 in NNW 0.9 mph 3 mph 97% 0.05 in 9 W/m2
09:24 50.7 °F 49.8 °F 29.5 in NE 2 mph 10 mph 97% 0.04 in 12 W/m2
09:29 51.1 °F 50.2 °F 29.5 in NNW 2 mph 6 mph 97% 0.03 in 12 W/m2
09:34 51.3 °F 50.4 °F 29.5 in NNW 2.9 mph 5 mph 97% 0.02 in 14 W/m2
09:39 51.4 °F 50.4 °F 29.5 in West 0.9 mph 6 mph 96% 0.02 in 25 W/m2
09:44 51.6 °F 50.5 °F 29.5 in WNW 0.9 mph 8 mph 96% 0.02 in 25 W/m2
09:49 52 °F 50.9 °F 29.5 in SSW 2.9 mph 5 mph 96% 0.02 in 37 W/m2
09:54 52.2 °F 51.1 °F 29.5 in West 0.9 mph 5 mph 96% 0.02 in 44 W/m2
09:59 52.2 °F 51.1 °F 29.5 in Calm   4 mph 96% 0.02 in 46 W/m2
10:04 52.3 °F 51.3 °F 29.5 in WNW 2 mph 8 mph 96% 0.02 in 33 W/m2
10:09 52.3 °F 50.9 °F 29.5 in WNW 4 mph 6 mph 95% 0.02 in 33 W/m2
10:14 52.5 °F 51.1 °F 29.5 in East 2 mph 10 mph 95% 0.02 in 19 W/m2
10:19 52.5 °F 51.1 °F 29.5 in ENE 2 mph 5 mph 95% 0.02 in 16 W/m2
10:24 52.5 °F 51.1 °F 29.5 in NNE 2 mph 10 mph 95% 0.02 in 14 W/m2
10:29 52.5 °F 51.1 °F 29.4 in South 0.9 mph 5 mph 95% 0.04 in 28 W/m2
10:34 52.7 °F 51.3 °F 29.5 in WNW 8.9 mph 9 mph 95% 0.04 in 25 W/m2
10:39 52.7 °F 51.3 °F 29.5 in ENE 0.9 mph 5 mph 95% 0.05 in 33 W/m2
10:44 52.9 °F 51.4 °F 29.5 in ESE 9 mph 9 mph 95% 0.04 in 21 W/m2
10:49 52.9 °F 51.4 °F 29.5 in Calm   2 mph 95% 0.06 in 16 W/m2
10:55 52.9 °F 51.4 °F 29.5 in NNW 2.9 mph 6 mph 95% 0.07 in 18 W/m2
11:00 52.9 °F 51.4 °F 29.5 in WNW 2 mph 6 mph 95% 0.08 in 28 W/m2
11:05 52.9 °F 51.4 °F 29.5 in WSW 2 mph 3 mph 95% 0.09 in 25 W/m2
11:10 53.1 °F 51.6 °F 29.5 in WNW 6.9 mph 11 mph 95% 0.09 in 33 W/m2
11:15 53.1 °F 51.6 °F 29.4 in SSE 4 mph 4 mph 95% 0.09 in 33 W/m2
11:20 53.1 °F 51.4 °F 29.4 in West 6.9 mph 11 mph 94% 0.09 in 44 W/m2
11:25 53.2 °F 51.6 °F 29.4 in NNE 4 mph 4 mph 94% 0.09 in 42 W/m2
11:30 53.2 °F 51.6 °F 29.5 in WNW 2 mph 7 mph 94% 0.07 in 19 W/m2
11:35 53.2 °F 51.6 °F 29.5 in West 2.9 mph 6 mph 94% 0.07 in 35 W/m2
11:40 53.2 °F 51.3 °F 29.4 in WNW 8.9 mph 9 mph 93% 0.06 in 28 W/m2
11:45 53.2 °F 51.3 °F 29.5 in WNW 4.9 mph 8 mph 93% 0.06 in 39 W/m2
11:50 53.2 °F 51.3 °F 29.5 in WNW 4 mph 11 mph 93% 0.05 in 32 W/m2
11:55 53.4 °F 51.4 °F 29.5 in Calm   2 mph 93% 0.03 in 47 W/m2
12:00 53.4 °F 51.1 °F 29.5 in NW 4 mph 11 mph 92% 0.02 in 40 W/m2
12:05 53.4 °F 51.1 °F 29.5 in South 4.9 mph 10 mph 92% 0.01 in 39 W/m2
12:10 53.4 °F 50.9 °F 29.5 in WNW 4.9 mph 11 mph 91% 0.01 in 46 W/m2
12:15 53.4 °F 50.5 °F 29.5 in SW 4.9 mph 9 mph 90% 0 in 39 W/m2
12:20 53.6 °F 50.7 °F 29.5 in WNW 2.9 mph 9 mph 90% 0 in 35 W/m2
12:25 53.4 °F 50.2 °F 29.5 in West 0.9 mph 9 mph 89% 0 in 37 W/m2
12:30 53.4 °F 50.2 °F 29.5 in WSW 0.9 mph 7 mph 89% 0 in 35 W/m2
12:35 53.4 °F 50.2 °F 29.5 in WNW 2.9 mph 9 mph 89% 0 in 54 W/m2
12:40 53.4 °F 50.2 °F 29.4 in West 2.9 mph 8 mph 89% 0 in 58 W/m2
12:45 53.4 °F 50.2 °F 29.5 in East 2 mph 5 mph 89% 0 in 40 W/m2
12:50 53.2 °F 50 °F 29.5 in SSW 0.9 mph 6 mph 89% 0 in 70 W/m2
12:55 53.4 °F 50 °F 29.5 in West 8.9 mph 13 mph 88% 0 in 67 W/m2
13:00 53.4 °F 49.6 °F 29.5 in North 2.9 mph 5 mph 87% 0 in 95 W/m2
13:05 53.6 °F 49.8 °F 29.5 in WNW 2 mph 7 mph 87% 0 in 69 W/m2
13:10 53.4 °F 49.6 °F 29.5 in NW 4.9 mph 6 mph 87% 0 in 28 W/m2
13:15 53.4 °F 49.6 °F 29.4 in West 2 mph 3 mph 87% 0 in 88 W/m2
13:20 53.4 °F 49.6 °F 29.5 in WNW 4 mph 9 mph 87% 0 in 74 W/m2
13:25 53.2 °F 49.5 °F 29.5 in ESE 2 mph 4 mph 87% 0 in 83 W/m2
13:30 53.2 °F 49.8 °F 29.5 in SW 0.9 mph 9 mph 88% 0 in 142 W/m2
13:35 53.4 °F 50 °F 29.5 in NNW 6 mph 8 mph 88% 0 in 141 W/m2
13:40 53.4 °F 50 °F 29.5 in SE 0.9 mph 3 mph 88% 0 in 79 W/m2
13:45 53.4 °F 50 °F 29.5 in West 8.1 mph 9 mph 88% 0 in 144 W/m2
13:50 53.6 °F 49.8 °F 29.5 in WNW 6.9 mph 12 mph 87% 0 in 162 W/m2
13:55 53.8 °F 49.6 °F 29.5 in NW 6 mph 7 mph 86% 0 in 51 W/m2
14:00 53.8 °F 49.6 °F 29.5 in NW 6.9 mph 12 mph 86% 0 in 67 W/m2
14:05 54 °F 49.8 °F 29.5 in WSW 4 mph 5 mph 86% 0 in 69 W/m2
14:10 54 °F 49.8 °F 29.5 in WNW 11 mph 11 mph 86% 0 in 40 W/m2
14:15 54 °F 49.8 °F 29.5 in East 2 mph 10 mph 86% 0 in 72 W/m2
14:20 54 °F 49.8 °F 29.5 in WNW 2 mph 3 mph 86% 0 in 141 W/m2
14:25 54 °F 49.6 °F 29.5 in North 4 mph 10 mph 85% 0 in 30 W/m2
14:30 54 °F 49.6 °F 29.5 in NNW 4.9 mph 5 mph 85% 0 in 21 W/m2
14:35 54 °F 49.6 °F 29.5 in ESE 10.1 mph 11 mph 85% 0 in 178 W/m2
14:40 54 °F 49.6 °F 29.5 in NNW 2.9 mph 7 mph 85% 0 in 193 W/m2
14:45 54.1 °F 49.8 °F 29.5 in West 6 mph 12 mph 85% 0 in 105 W/m2
14:50 54.1 °F 49.8 °F 29.5 in WSW 4.9 mph 8 mph 85% 0 in 113 W/m2
14:55 54.1 °F 49.8 °F 29.5 in West 2.9 mph 12 mph 85% 0 in 49 W/m2
15:00 54 °F 49.6 °F 29.5 in ESE 4 mph 6 mph 85% 0 in 98 W/m2
15:05 54 °F 49.3 °F 29.5 in NW 4.9 mph 12 mph 84% 0 in 134 W/m2
15:10 54.1 °F 49.1 °F 29.5 in SE 8.1 mph 10 mph 83% 0 in 142 W/m2
15:15 54.3 °F 48.9 °F 29.5 in SW 0.9 mph 8 mph 82% 0 in 86 W/m2
15:20 54.5 °F 48.7 °F 29.5 in West 6.9 mph 10 mph 81% 0 in 60 W/m2
15:25 54.7 °F 48.6 °F 29.5 in SSW 2 mph 16 mph 80% 0 in 56 W/m2
15:30 54.7 °F 48.4 °F 29.5 in West 6.9 mph 12 mph 79% 0 in 37 W/m2
15:36 54.5 °F 48.2 °F 29.5 in West 6 mph 8 mph 79% 0 in 60 W/m2
15:41 54.3 °F 47.7 °F 29.5 in NNW 6 mph 9 mph 78% 0 in 86 W/m2
15:46 54.3 °F 48 °F 29.5 in NNE 2 mph 8 mph 79% 0 in 60 W/m2
15:51 54.3 °F 47.7 °F 29.5 in WNW 4 mph 9 mph 78% 0 in 77 W/m2
15:56 54.3 °F 47.7 °F 29.4 in WSW 2 mph 2 mph 78% 0 in 91 W/m2
16:01 54.3 °F 47.7 °F 29.4 in North 0.9 mph 8 mph 78% 0 in 40 W/m2
16:06 54.3 °F 47.7 °F 29.4 in SW 2 mph 7 mph 78% 0 in 58 W/m2
16:11 54.3 °F 47.7 °F 29.4 in SW 2.9 mph 7 mph 78% 0 in 47 W/m2
16:16 54.3 °F 47.7 °F 29.4 in NW 2 mph 4 mph 78% 0 in 67 W/m2
16:21 54.3 °F 47.7 °F 29.4 in East 2.9 mph 18 mph 78% 0 in 18 W/m2
16:26 54.1 °F 47.8 °F 29.5 in North 2 mph 4 mph 79% 0 in 9 W/m2
16:31 54.1 °F 48 °F 29.5 in West 2.9 mph 18 mph 80% 0 in 9 W/m2
16:36 53.6 °F 48.2 °F 29.4 in East 4 mph 10 mph 82% 0.01 in 19 W/m2
16:41 52.9 °F 48.2 °F 29.4 in NNW 2.9 mph 20 mph 84% 0.03 in 12 W/m2
16:46 52.3 °F 48.2 °F 29.4 in WNW 6.9 mph 10 mph 86% 0.05 in 7 W/m2
16:51 52 °F 48.2 °F 29.4 in West 8.1 mph 20 mph 87% 0.06 in 5 W/m2
16:56 51.4 °F 48 °F 29.4 in NNW 0.9 mph 5 mph 88% 0.06 in 0 W/m2
17:01 51.3 °F 48.4 °F 29.5 in WNW 4 mph 10 mph 90% 0.07 in 0 W/m2
17:06 51.3 °F 48.7 °F 29.5 in SW 0.9 mph 6 mph 91% 0.07 in 7 W/m2
17:11 51.1 °F 48.6 °F 29.5 in NW 2 mph 6 mph 91% 0.08 in 0 W/m2
17:16 51.1 °F 48.6 °F 29.5 in West 2.9 mph 16 mph 91% 0.08 in 0 W/m2
17:21 51.1 °F 48.6 °F 29.5 in WSW 2.9 mph 7 mph 91% 0.09 in 0 W/m2
17:26 51.1 °F 48.6 °F 29.5 in WNW 4.9 mph 16 mph 91% 0.1 in 0 W/m2
17:31 51.3 °F 48.7 °F 29.5 in WNW 2 mph 7 mph 91% 0.11 in 0 W/m2
17:36 51.3 °F 48.7 °F 29.5 in NW 2 mph 11 mph 91% 0.09 in 0 W/m2
17:41 51.3 °F 48.7 °F 29.5 in East 2 mph 6 mph 91% 0.09 in 0 W/m2
17:46 51.3 °F 48.7 °F 29.5 in West 0.9 mph 11 mph 91% 0.08 in 0 W/m2
17:51 51.3 °F 48.4 °F 29.5 in NNW 2 mph 5 mph 90% 0.07 in 0 W/m2
17:56 51.4 °F 48.6 °F 29.5 in West 15 mph 17 mph 90% 0.06 in 0 W/m2
18:01 51.8 °F 48.4 °F 29.5 in WNW 2 mph 12 mph 88% 0.06 in 0 W/m2
18:06 51.8 °F 48.4 °F 29.5 in WNW 2 mph 17 mph 88% 0.06 in 0 W/m2
18:11 52 °F 48.2 °F 29.5 in North 6 mph 6 mph 87% 0.06 in 0 W/m2
18:16 51.6 °F 48.2 °F 29.5 in SW 2 mph 12 mph 88% 0.06 in 0 W/m2
18:21 51.4 °F 48.4 °F 29.5 in NW 8.9 mph 9 mph 89% 0.05 in 0 W/m2
18:26 51.4 °F 48.4 °F 29.5 in WNW 0.9 mph 12 mph 89% 0.03 in 0 W/m2
18:31 51.3 °F 48.2 °F 29.5 in East 2 mph 10 mph 89% 0.02 in 0 W/m2
18:36 51.4 °F 48.4 °F 29.5 in WSW 2.9 mph 13 mph 89% 0.03 in 0 W/m2
18:41 51.4 °F 48.4 °F 29.5 in West 12.1 mph 13 mph 89% 0.02 in 0 W/m2
18:46 51.4 °F 48.4 °F 29.5 in NNW 2.9 mph 13 mph 89% 0.02 in 0 W/m2
18:51 51.3 °F 48.2 °F 29.5 in SW 11 mph 12 mph 89% 0.04 in 0 W/m2
18:56 50.9 °F 48 °F 29.5 in SW 13 mph 13 mph 90% 0.08 in 0 W/m2
19:01 50.5 °F 48 °F 29.5 in WSW 10.1 mph 19 mph 91% 0.11 in 0 W/m2
19:06 50.2 °F 47.7 °F 29.5 in NNE 12.1 mph 18 mph 91% 0.13 in 0 W/m2
19:11 49.8 °F 46.9 °F 29.5 in WSW 6.9 mph 12 mph 90% 0.13 in 0 W/m2
19:16 49.6 °F 46.8 °F 29.5 in West 6.9 mph 13 mph 90% 0.13 in 0 W/m2
19:21 49.6 °F 46.8 °F 29.5 in NNW 8.9 mph 15 mph 90% 0.13 in 0 W/m2
19:26 49.5 °F 46.6 °F 29.5 in NW 16.1 mph 19 mph 90% 0.13 in 0 W/m2
19:31 49.5 °F 46.6 °F 29.5 in NW 4 mph 13 mph 90% 0.13 in 0 W/m2
19:36 49.3 °F 46.2 °F 29.5 in WNW 8.1 mph 15 mph 89% 0.12 in 0 W/m2
19:41 49.1 °F 45.7 °F 29.5 in West 8.1 mph 14 mph 88% 0.12 in 0 W/m2
19:46 48.9 °F 45.5 °F 29.5 in West 6.9 mph 12 mph 88% 0.12 in 0 W/m2
19:51 48.9 °F 45.5 °F 29.6 in WNW 4 mph 15 mph 88% 0.09 in 0 W/m2
19:56 48.9 °F 45.5 °F 29.6 in West 6.9 mph 13 mph 88% 0.05 in 0 W/m2
20:02 48.9 °F 45.5 °F 29.6 in West 14.1 mph 17 mph 88% 0.02 in 0 W/m2
20:07 48.9 °F 45.1 °F 29.6 in West 6.9 mph 14 mph 87% 0.01 in 0 W/m2
20:12 48.7 °F 44.8 °F 29.6 in WSW 8.1 mph 17 mph 86% 0 in 0 W/m2
20:17 48.7 °F 44.8 °F 29.6 in WNW 8.1 mph 16 mph 86% 0 in 0 W/m2
20:22 48.6 °F 44.6 °F 29.6 in WNW 6.9 mph 16 mph 86% 0 in 0 W/m2
20:27 48.6 °F 44.6 °F 29.6 in WSW 2.9 mph 20 mph 86% 0 in 0 W/m2
20:32 48.4 °F 44.4 °F 29.6 in NW 13 mph 13 mph 86% 0 in 0 W/m2
20:37 48 °F 44.1 °F 29.6 in NW 17 mph 20 mph 86% 0 in 0 W/m2
20:42 48 °F 44.1 °F 29.6 in WNW 8.1 mph 21 mph 86% 0 in 0 W/m2
20:47 48 °F 44.1 °F 29.6 in WNW 14.1 mph 15 mph 86% 0 in 0 W/m2
20:52 48 °F 44.1 °F 29.6 in NW 12.1 mph 20 mph 86% 0 in 0 W/m2
20:57 47.8 °F 43.9 °F 29.6 in NW 12.1 mph 26 mph 86% 0 in 0 W/m2
21:02 47.8 °F 43.9 °F 29.6 in WSW 12.1 mph 19 mph 86% 0 in 0 W/m2
21:07 47.7 °F 43.7 °F 29.6 in SW 15 mph 26 mph 86% 0 in 0 W/m2
21:12 47.7 °F 43.3 °F 29.6 in WSW 16.1 mph 28 mph 85% 0 in 0 W/m2
21:17 47.7 °F 43.7 °F 29.6 in WNW 16.1 mph 19 mph 86% 0 in 0 W/m2
21:22 47.5 °F 43.5 °F 29.6 in WNW 15 mph 28 mph 86% 0 in 0 W/m2
21:27 47.3 °F 43.7 °F 29.6 in West 15 mph 22 mph 87% 0 in 0 W/m2
21:32 47.1 °F 43.5 °F 29.7 in West 4 mph 13 mph 87% 0 in 0 W/m2
21:37 47.1 °F 43.2 °F 29.7 in SW 11 mph 22 mph 86% 0 in 0 W/m2
21:42 47.1 °F 43.2 °F 29.7 in WNW 6.9 mph 11 mph 86% 0 in 0 W/m2
21:47 47.1 °F 43.2 °F 29.7 in West 8.1 mph 16 mph 86% 0 in 0 W/m2
21:52 47.1 °F 43.2 °F 29.7 in WNW 6.9 mph 17 mph 86% 0 in 0 W/m2
21:57 47.1 °F 43.2 °F 29.7 in WNW 8.9 mph 17 mph 86% 0 in 0 W/m2
22:02 47.1 °F 42.6 °F 29.7 in WNW 13 mph 23 mph 84% 0 in 0 W/m2
22:07 47.1 °F 42.8 °F 29.7 in West 6 mph 13 mph 85% 0 in 0 W/m2
22:12 47.1 °F 42.8 °F 29.7 in NW 8.9 mph 13 mph 85% 0 in 0 W/m2
22:17 47.1 °F 42.8 °F 29.7 in WNW 8.1 mph 15 mph 85% 0 in 0 W/m2
22:22 47.1 °F 42.8 °F 29.7 in West 8.9 mph 13 mph 85% 0 in 0 W/m2
22:27 47.3 °F 42.8 °F 29.7 in West 13 mph 13 mph 84% 0 in 0 W/m2
22:32 47.1 °F 42.6 °F 29.7 in WSW 6 mph 12 mph 84% 0 in 0 W/m2
22:37 47.1 °F 42.8 °F 29.7 in WNW 8.1 mph 11 mph 85% 0 in 0 W/m2
22:42 47.1 °F 42.8 °F 29.7 in WNW 6.9 mph 17 mph 85% 0 in 0 W/m2
22:47 47.1 °F 42.8 °F 29.7 in West 6 mph 10 mph 85% 0 in 0 W/m2
22:52 46.9 °F 43 °F 29.7 in NNE 2.9 mph 17 mph 86% 0 in 0 W/m2
22:57 46.9 °F 43.3 °F 29.7 in WNW 6 mph 15 mph 87% 0 in 0 W/m2
23:02 46.8 °F 43.2 °F 29.7 in WSW 8.9 mph 13 mph 87% 0 in 0 W/m2
23:07 46.8 °F 43.2 °F 29.7 in SW 8.9 mph 15 mph 87% 0 in 0 W/m2
23:12 46.8 °F 43.2 °F 29.7 in SSW 4 mph 7 mph 87% 0 in 0 W/m2
23:17 46.8 °F 43.2 °F 29.7 in NW 4 mph 6 mph 87% 0 in 0 W/m2
23:22 46.8 °F 43.2 °F 29.8 in WNW 8.9 mph 12 mph 87% 0 in 0 W/m2
23:27 46.8 °F 42.8 °F 29.8 in SSW 2.9 mph 9 mph 86% 0 in 0 W/m2
23:32 46.8 °F 42.8 °F 29.8 in West 4 mph 9 mph 86% 0 in 0 W/m2
23:37 46.8 °F 42.8 °F 29.8 in West 10.1 mph 10 mph 86% 0 in 0 W/m2
23:42 46.8 °F 42.8 °F 29.8 in WNW 2.9 mph 11 mph 86% 0 in 0 W/m2
23:47 46.6 °F 42.3 °F 29.8 in West 8.9 mph 10 mph 85% 0 in 0 W/m2
23:52 46.6 °F 42.3 °F 29.8 in SSW 4 mph 9 mph 85% 0 in 0 W/m2
23:57 46.6 °F 42.3 °F 29.8 in WSW 4 mph 10 mph 85% 0 in 0 W/m2
Juneau County Weather
Compliments of Weather Underground - 4 mb